IRIDIUM 33 DEB, 35297

Orbit data source: Space-Track

IRIDIUM 33 DEB, 35297 is space debris in LEO originally from a launch on Sun, 14 Sep 1997 UTC launched from the Tyuratam Missile And Space Complex (TTMTR). The debris from Iridium 33, an American commercial communications satellite, has been tracked extensively since its accidental collision with the defunct Russian satellite Cosmos 2251 in 2009. This event, occurring at high speed in low Earth orbit (LEO), generated thousands of pieces of space debris, significantly increasing the risk of further collisions. The Iridium 33 debris cloud has impacted space traffic management and orbital debris mitigation strategies, making it a subject of ongoing study in space situational awareness.

Loading next visibility...
Identifier
35297, 1997-051PM
Orbit
LEO
Country
Flag of USUS
Related business
Manufacturer
Unknown
Mission
Spacecraft
Bus & Motor
Unknown
Mass
Unknown
Launch date (UTC)
1997-09-14 (29 years ago)
Launch vehicle
Unknown
Launch site
Tyuratam Missile And Space Complex (TTMTR)
Object type
Payload
Rocket body
Debris
Shape & HBR
Unknown shape, 0.1 m
Radar Cross Section
Medium (>0.1 m² and <1 m²)

Expand to show TLE details & history
Last TLE update: 6 days ago

TLE from 6 days ago
0 IRIDIUM 33 DEB
1 35297U 97051PM  26203.09151665  .00001617  00000-0  44718-3 0  9996
2 35297  86.3891 328.2308 0017688 126.1569 234.1273 14.46069025736240
Epoch: 2026-07-22T02:11Z
TLE epoch observation values (Epoch: 2026-07-22T02:11:47.038Z)
Latitude
-0.00004°
Longitude
-4.56702°
Altitude
748.977 km
Speed
7.476 km/s
True Right ascension
21h 52m 55s
True Declination
0° 00' 00"
Sunlit
Object was in full shadow at epoch
Visualization orbit readout
Latitude
Unknown
Longitude
Unknown
Altitude
Unknown
Speed
Unknown
Apparent Right ascension
Unknown
Apparent Declination
Unknown
Sunlit
N/A
Visualization observer readout
Local Sidereal Time
20:53:48
Azimuth
Unknown
Elevation
Unknown
Doppler factor
Unknown
Orbital elements
Apogee altitude
748.047 km
Perigee altitude
722.882 km
Semi-major axis
7,113.601 km
Eccentricity
0.00177
Inclination
86.3891°
RAAN
328.2308°
Arg. of periapsis
126.1569°
True anomaly
233.96327°
Mean anomaly
234.1273°
Eccentric anomaly
234.04526°
Mean motion
3.6175 °/min
Orbital period
99.52 mins
BSTAR
0.00044718
Loading maneuver chart data...
Computing Atmospheric mass density...
Loading historical data...
Loading historical data...
Loading historical data...
Loading historical data...
Loading historical data...
Loading historical data...
Loading historical data...

Documentation

Showing up to 5 results
|